This demonstration page uses our WeatherBlox Daily Observations layout. Learn more.

Left ArrowRight Arrow

Hourly Observations for July 22, 2017

Temp ( °F °C ) Dew Point ( °F °C ) Humidity (%) Winds ( mph kmh ) Pressure ( in mb ) Visibility ( mi km ) Precip ( " mm )
12:15 am 00:15 Clear 81 27.1 69 20.6 68 68 S 9 15 29.71 1006 10 16 0.00 0.00
12:35 am 00:35 Clear 80 26.5 68 20.2 68 68 S 6 9 29.68 1005 10 16 0.00 0.00
12:55 am 00:55 Clear 80 26.4 66 18.9 63 63 SW 6 9 29.68 1005 10 16 0.00 0.00
1:15 am 01:15 Clear 77 25.1 69 20.5 76 76 WNW 3 6 29.68 1005 10 16 0.00 0.00
1:35 am 01:35 Clear 76 24.5 69 20.5 78 78 NNW 9 15 29.71 1006 10 16 0.00 0.00
1:55 am 01:55 Clear 78 25.7 70 21.2 76 76 SW 5 7 29.71 1006 10 16 0.00 0.00
2:15 am 02:15 Clear 76 24.5 70 21.2 82 82 SW 5 7 29.74 1007 10 16 0.00 0.00
2:35 am 02:35 Partly Cloudy 76 24.4 69 20.4 78 78 SSW 8 13 29.74 1007 10 16 0.00 0.00
2:55 am 02:55 Mostly Cloudy 78 25.5 67 19.3 69 69 W 10 17 29.77 1008 10 16 0.00 0.00
3:15 am 03:15 Partly Cloudy 78 25.7 62 16.4 57 57 WNW 16 26 29.74 1007 10 16 0.00 0.00
3:35 am 03:35 Partly Cloudy 78 25.6 60 15.5 54 54 NW 17 28 29.80 1009 10 16 0.00 0.00
3:55 am 03:55 Partly Cloudy 78 25.8 58 14.6 50 50 NW 17 28 29.74 1007 10 16 0.00 0.00
4:15 am 04:15 Partly Cloudy 78 25.7 58 14.2 49 49 NW 12 19 29.80 1009 10 16 0.00 0.00
4:35 am 04:35 Clear 77 25.1 58 14.5 52 52 NNW 9 15 29.80 1009 10 16 0.00 0.00
4:55 am 04:55 Clear 75 24.1 59 15.1 57 57 NNW 8 13 29.80 1009 10 16 0.00 0.00
5:15 am 05:15 Clear 75 23.7 60 15.4 60 60 NW 9 15 29.80 1009 10 16 0.00 0.00
5:35 am 05:35 Clear 74 23.2 60 15.7 63 63 NNW 6 9 29.80 1009 10 16 0.00 0.00
5:55 am 05:55 Clear 74 23.4 62 16.4 65 65 NNW 6 9 29.80 1009 10 16 0.00 0.00
6:15 am 06:15 Clear 73 22.6 62 16.9 70 70 NNW 3 6 29.80 1009 10 16 0.00 0.00
6:35 am 06:35 Partly Cloudy 72 22 63 17.4 75 75 N 8 13 29.83 1010 10 16 0.00 0.00
6:55 am 06:55 Partly Cloudy 72 22 64 17.5 76 76 N 7 11 29.83 1010 10 16 0.00 0.00
7:15 am 07:15 Mostly Cloudy 72 22 65 18.5 81 81 NNW 3 6 29.83 1010 10 16 0.00 0.00
7:35 am 07:35 Partly Cloudy 73 22.5 66 18.7 79 79 NE 7 11 29.80 1009 10 16 0.00 0.00
7:55 am 07:55 Sunny 75 24.1 66 18.8 72 72 NNE 7 11 29.80 1009 10 16 0.00 0.00
8:15 am 08:15 Sunny 76 24.6 67 19.3 72 72 NNE 5 7 29.83 1010 10 16 0.00 0.00
8:35 am 08:35 Sunny 78 25.6 67 19.7 70 70 NE 7 11 29.83 1010 10 16 0.00 0.00
8:55 am 08:55 Sunny 80 26.7 68 20 67 67 NE 6 9 29.80 1009 10 16 0.00 0.00
9:15 am 09:15 Sunny 79 25.9 67 19.6 68 68 NE 7 11 29.83 1010 10 16 0.00 0.00
9:35 am 09:35 Sunny 80 26.7 69 20.3 68 68 NNE 7 11 29.83 1010 10 16 0.00 0.00
9:55 am 09:55 Sunny 80 26.7 68 20.2 68 68 NE 10 17 29.83 1010 10 16 0.00 0.00
10:15 am 10:15 Sunny 81 27 69 20.7 68 68 NE 9 15 29.83 1010 10 16 0.00 0.00
10:35 am 10:35 Sunny 81 27.1 69 20.3 66 66 NE 7 11 29.83 1010 10 16 0.00 0.00
10:55 am 10:55 Sunny 83 28.5 70 21.1 64 64 NNE 7 11 29.83 1010 10 16 0.00 0.00
11:15 am 11:15 Sunny 84 29.1 70 21.3 63 63 NNE 9 15 29.83 1010 10 16 0.00 0.00
11:35 am 11:35 Partly Cloudy 84 29.1 69 20.4 59 59 NE 9 15 29.83 1010 10 16 0.00 0.00
11:55 am 11:55 Partly Cloudy 84 28.7 68 20.2 60 60 NE 7 11 29.83 1010 10 16 0.00 0.00
12:15 pm 12:15 Partly Cloudy 83 28.6 69 20.5 62 62 NE 6 9 29.85 1011 10 16 0.00 0.00
12:35 pm 12:35 Sunny 83 28.5 70 21.2 65 65 NNW 5 7 29.85 1011 10 16 0.00 0.00
12:55 pm 12:55 Sunny 84 28.9 69 20.3 60 60 Calm 29.88 1012 10 16 0.00 0.00
1:15 pm 13:15 Sunny 84 29.1 70 21.2 62 62 Calm 29.88 1012 10 16 0.00 0.00
1:35 pm 13:35 Sunny 85 29.7 70 21 60 60 NE 6 9 29.85 1011 10 16 0.00 0.00
1:55 pm 13:55 Sunny 85 29.5 70 21 60 60 N 7 11 29.88 1012 10 16 0.00 0.00
2:15 pm 14:15 Sunny 86 30 69 20.8 58 58 N 8 13 29.88 1012 10 16 0.00 0.00
2:35 pm 14:35 Sunny 86 30 69 20.3 56 56 N 9 15 29.88 1012 10 16 0.00 0.00
2:55 pm 14:55 Sunny 85 29.6 69 20.3 57 57 N 10 17 29.88 1012 10 16 0.00 0.00
3:15 pm 15:15 Sunny 83 28.2 68 20.2 62 62 N 6 9 29.88 1012 10 16 0.00 0.00
3:35 pm 15:35 Sunny 82 27.7 70 21.1 67 67 NNW 6 9 29.88 1012 10 16 0.00 0.00
3:55 pm 15:55 Sunny 81 27.4 70 21.1 69 69 NNW 7 11 29.88 1012 10 16 0.00 0.00
4:15 pm 16:15 Sunny 81 27 69 20.5 68 68 N 6 9 29.91 1013 10 16 0.00 0.00
4:35 pm 16:35 Sunny 81 27.2 70 21.2 70 70 Calm 29.91 1013 10 16 0.00 0.00
4:55 pm 16:55 Partly Cloudy 82 27.5 71 21.9 72 72 N 3 6 29.88 1012 10 16 0.00 0.00
5:15 pm 17:15 Sunny 81 27.4 68 20.1 64 64 NNW 6 9 29.88 1012 10 16 0.00 0.00
5:35 pm 17:35 Sunny 80 26.6 68 19.9 67 67 NNE 5 7 29.88 1012 10 16 0.00 0.00
5:55 pm 17:55 Partly Cloudy 79 26.3 69 20.5 71 71 ENE 5 7 29.88 1012 10 16 0.00 0.00
6:15 pm 18:15 Mostly Cloudy 81 27 62 16.7 53 53 E 6 9 29.85 1011 10 16 0.00 0.00
6:35 pm 18:35 Partly Cloudy 80 26.9 66 18.8 61 61 E 3 6 29.88 1012 10 16 0.00 0.00
6:55 pm 18:55 Sunny 81 27 64 17.9 58 58 ESE 8 13 29.83 1010 10 16 0.00 0.00
7:15 pm 19:15 Sunny 81 27.2 66 18.8 60 60 E 6 9 29.83 1010 10 16 0.00 0.00
7:35 pm 19:35 Sunny 81 27.1 66 18.7 60 60 E 5 7 29.83 1010 10 16 0.00 0.00
7:55 pm 19:55 Sunny 80 26.8 66 18.8 62 62 E 8 13 29.83 1010 10 16 0.00 0.00
8:15 pm 20:15 Sunny 80 26.5 67 19.4 65 65 SE 3 6 29.88 1012 10 16 0.00 0.00
8:35 pm 20:35 Sunny 78 25.6 67 19.4 69 69 Calm 29.88 1012 10 16 0.00 0.00
8:55 pm 20:55 Sunny 76 24.3 68 19.8 76 76 Calm 29.88 1012 10 16 0.00 0.00
9:15 pm 21:15 Clear 75 23.8 67 19.7 78 78 Calm 29.88 1012 10 16 0.00 0.00
9:35 pm 21:35 Clear 72 22.1 68 19.8 87 87 NW 3 6 29.91 1013 10 16 0.00 0.00
9:55 pm 21:55 Clear 71 21.6 67 19.5 88 88 Calm 29.91 1013 10 16 0.00 0.00
10:15 pm 22:15 Clear 70 20.9 67 19.2 90 90 Calm 29.94 1014 10 16 0.00 0.00
10:35 pm 22:35 Clear 70 21.2 67 19.2 88 88 Calm 29.94 1014 10 16 0.00 0.00
10:55 pm 22:55 Clear 69 20.8 66 18.9 89 89 Calm 29.94 1014 10 16 0.00 0.00
11:15 pm 23:15 Clear 69 20.7 66 18.7 88 88 Calm 29.94 1014 10 16 0.00 0.00
11:35 pm 23:35 Clear 68 20 66 18.7 92 92 Calm 29.97 1015 10 16 0.00 0.00
11:55 pm 23:55 Clear 68 20 65 18.6 92 92 E 5 7 29.97 1015 7 11 0.00 0.00

Powered by AerisWeather